DW0148 Weather Reports


Display with metric or nautical units.
time (UTC)temp
F
wind
direction
speed
MPH
gust
MPH
rain 1hr
in
rain 24hr
in
rain mn
in
humidity
%
barometer
mb
20170628052742 58 60 0.0 0.0 0.00 0.00 0.00 95 1020.7
20170628052242 58 61 0.0 0.0 0.00 0.00 0.00 95 1020.7
20170628051741 58 61 0.0 0.0 0.00 0.00 0.00 95 1020.7
20170628051240 58 60 0.0 0.0 0.00 0.00 0.00 94 1020.7
20170628050738 58 60 0.0 0.0 0.00 0.00 0.00 94 1020.3
20170628050237 58 60 0.0 0.0 0.00 0.00 0.00 94 1020.3
20170628045736 58 60 0.0 0.0 0.00 0.00 0.00 94 1020.3
20170628045235 58 61 0.0 0.0 0.00 0.00 0.00 94 1020.3
20170628044733 58 60 0.0 0.0 0.00 0.00 0.00 94 1020.7
20170628044232 58 60 0.0 1.0 0.00 0.00 0.00 93 1020.7
20170628043731 58 61 0.0 1.0 0.00 0.00 0.00 93 1020.7
20170628043231 58 60 0.0 1.0 0.00 0.00 0.00 93 1020.7
20170628042729 58 60 1.0 1.0 0.00 0.00 0.00 93 1020.7
20170628042228 58 60 0.0 0.0 0.00 0.00 0.00 92 1020.7
20170628041728 58 61 0.0 0.0 0.00 0.00 0.00 92 1020.7
20170628041226 59 60 0.0 0.0 0.00 0.00 0.00 92 1020.7
20170628040725 59 60 0.0 1.0 0.00 0.00 0.00 91 1020.7
20170628040224 59 60 0.0 1.0 0.00 0.00 0.00 91 1020.3
20170628035723 59 61 0.0 1.0 0.00 0.00 0.00 91 1020.7
20170628035222 59 60 0.0 1.0 0.00 0.00 0.00 91 1020.3
20170628034721 59 60 0.0 1.0 0.00 0.00 0.00 91 1020.3
20170628034220 59 60 0.0 1.0 0.00 0.00 0.00 91 1020.3
20170628033719 59 60 0.0 1.0 0.00 0.00 0.00 91 1020.3
20170628033218 59 61 0.0 0.0 0.00 0.00 0.00 90 1020.3
20170628032717 59 61 0.0 1.0 0.00 0.00 0.00 90 1020.3
20170628032216 59 60 0.0 1.0 0.00 0.00 0.00 90 1020.3
20170628031716 59 60 0.0 1.0 0.00 0.00 0.00 90 1020.3
20170628031214 60 60 0.0 1.0 0.00 0.00 0.00 89 1020.3
20170628030713 60 61 1.0 1.0 0.00 0.00 0.00 89 1020.0
20170628030212 60 61 0.0 0.0 0.00 0.00 0.00 89 1020.0
20170628025711 60 60 0.0 1.0 0.00 0.00 0.00 89 1020.0
20170628025210 60 60 0.0 1.0 0.00 0.00 0.00 88 1020.0
20170628024709 60 60 0.0 1.0 0.00 0.00 0.00 88 1019.6
20170628024208 61 60 1.0 1.0 0.00 0.00 0.00 87 1019.6
20170628023707 61 61 0.0 0.0 0.00 0.00 0.00 86 1019.6
20170628023206 61 60 0.0 0.0 0.00 0.00 0.00 87 1019.6
20170628022705 61 60 0.0 1.0 0.00 0.00 0.00 87 1019.3
20170628022204 61 60 0.0 1.0 0.00 0.00 0.00 86 1019.3
20170628021703 61 60 0.0 1.0 0.00 0.00 0.00 86 1019.3
20170628021202 61 60 1.0 1.0 0.00 0.00 0.00 86 1019.3
20170628020701 62 62 0.0 0.0 0.00 0.00 0.00 85 1019.3
20170628020200 62 62 0.0 0.0 0.00 0.00 0.00 85 1019.3
20170628015659 62 63 0.0 0.0 0.00 0.00 0.00 84 1019.3
20170628015158 62 62 0.0 0.0 0.00 0.00 0.00 84 1019.0
20170628014657 63 62 0.0 0.0 0.00 0.00 0.00 85 1019.0
20170628014156 63 62 0.0 0.0 0.00 0.00 0.00 83 1019.0
20170628013621 64 63 0.0 0.0 0.00 0.00 0.00 83 1019.0
20170628013121 64 62 0.0 0.0 0.00 0.00 0.00 83 1018.6
20170628012620 64 62 0.0 0.0 0.00 0.00 0.00 82 1018.6
20170628012119 65 63 0.0 0.0 0.00 0.00 0.00 82 1018.6
20170628011618 65 62 0.0 0.0 0.00 0.00 0.00 82 1018.6
20170628011116 66 62 0.0 0.0 0.00 0.00 0.00 80 1018.6
20170628010615 66 63 0.0 0.0 0.00 0.00 0.00 79 1018.6
20170628010114 67 62 0.0 0.0 0.00 0.00 0.00 80 1018.6
20170628005613 67 62 0.0 0.0 0.00 0.00 0.00 78 1018.6
20170628005112 67 62 0.0 0.0 0.00 0.00 0.00 78 1018.6
20170628004609 68 62 0.0 0.0 0.00 0.00 0.00 77 1018.6
20170628004108 68 62 0.0 0.0 0.00 0.00 0.00 76 1018.6
20170628003607 69 63 0.0 0.0 0.00 0.00 0.00 76 1018.3
20170628003106 69 62 0.0 0.0 0.00 0.00 0.00 77 1018.3
20170628002606 70 62 0.0 0.0 0.00 0.00 0.00 75 1018.3
20170628002105 70 62 0.0 0.0 0.00 0.00 0.00 75 1018.3
20170628001603 71 62 0.0 0.0 0.00 0.00 0.00 73 1018.3
20170628001103 71 62 0.0 0.0 0.00 0.00 0.00 72 1018.3
20170628000602 72 63 0.0 0.0 0.00 0.00 0.00 71 1018.3
20170628000101 73 62 0.0 0.0 0.00 0.00 0.00 70 1018.3
20170627235600 73 62 0.0 0.0 0.00 0.00 0.00 69 1018.3
20170627235100 74 63 0.0 0.0 0.00 0.00 0.00 68 1018.3
20170627234558 74 63 0.0 0.0 0.00 0.00 0.00 65 1018.3
20170627234057 75 63 0.0 0.0 0.00 0.00 0.00 64 1018.3
20170627233556 75 62 0.0 1.0 0.00 0.00 0.00 57 1018.3
20170627233055 75 62 0.0 1.0 0.00 0.00 0.00 58 1018.3
20170627232554 76 63 0.0 1.0 0.00 0.00 0.00 54 1018.3
20170627232053 76 62 1.0 2.0 0.00 0.00 0.00 52 1018.3
20170627231552 76 8 0.0 3.0 0.00 0.00 0.00 53 1018.3
20170627231051 77 17 1.0 3.0 0.00 0.00 0.00 46 1018.3
20170627230550 77 346 1.0 4.0 0.00 0.00 0.00 49 1018.3
20170627230049 77 58 2.0 4.0 0.00 0.00 0.00 48 1018.3
20170627225549 77 2 1.0 3.0 0.00 0.00 0.00 50 1018.6
20170627225048 77 55 1.0 4.0 0.00 0.00 0.00 47 1018.6
20170627224547 77 52 3.0 4.0 0.00 0.00 0.00 48 1018.6
20170627224046 77 65 1.0 4.0 0.00 0.00 0.00 47 1018.3
20170627223545 77 49 1.0 5.0 0.00 0.00 0.00 46 1018.6
20170627223044 77 350 2.0 5.0 0.00 0.00 0.00 46 1018.6
20170627222543 78 279 2.0 4.0 0.00 0.00 0.00 49 1018.6
20170627222042 78 337 2.0 4.0 0.00 0.00 0.00 48 1018.6
20170627221541 78 59 2.0 6.0 0.00 0.00 0.00 42 1018.6
20170627221040 78 20 2.0 6.0 0.00 0.00 0.00 43 1018.3
20170627220539 79 45 2.0 5.0 0.00 0.00 0.00 42 1018.6
20170627220038 79 37 2.0 6.0 0.00 0.00 0.00 45 1018.6
20170627215537 79 326 3.0 7.0 0.00 0.00 0.00 41 1018.6
20170627215036 79 103 1.0 7.0 0.00 0.00 0.00 41 1018.6
20170627214535 79 346 2.0 9.0 0.00 0.00 0.00 40 1018.6
20170627214034 79 346 5.0 9.0 0.00 0.00 0.00 41 1018.6
20170627213533 79 232 2.0 9.0 0.00 0.00 0.00 42 1018.6
20170627213032 80 345 5.0 9.0 0.00 0.00 0.00 43 1019.0
20170627212532 80 344 4.0 6.0 0.00 0.00 0.00 42 1019.0
20170627212031 80 339 3.0 6.0 0.00 0.00 0.00 45 1019.0
20170627211528 79 196 1.0 5.0 0.00 0.00 0.00 46 1019.0
20170627211027 79 358 3.0 6.0 0.00 0.00 0.00 43 1019.0
20170627210526 79 343 3.0 6.0 0.00 0.00 0.00 44 1019.0
20170627210025 79 328 3.0 6.0 0.00 0.00 0.00 48 1019.0
20170627205523 79 6 2.0 6.0 0.00 0.00 0.00 46 1019.0
20170627205022 79 320 2.0 6.0 0.00 0.00 0.00 47 1019.3
20170627204520 79 351 3.0 6.0 0.00 0.00 0.00 47 1019.0
20170627204019 79 221 1.0 9.0 0.00 0.00 0.00 48 1019.0
20170627203518 78 250 1.0 10.0 0.00 0.00 0.00 50 1019.3
20170627203017 78 39 2.0 11.0 0.00 0.00 0.00 50 1019.3
20170627202517 79 17 3.0 11.0 0.00 0.00 0.00 51 1019.3
20170627202016 79 330 5.0 11.0 0.00 0.00 0.00 49 1019.3
20170627201514 78 339 2.0 8.0 0.00 0.00 0.00 52 1019.3
20170627201013 78 55 2.0 11.0 0.00 0.00 0.00 47 1019.3
20170627200512 78 342 2.0 11.0 0.00 0.00 0.00 48 1019.3
20170627200011 78 342 4.0 14.0 0.00 0.00 0.00 45 1019.3
20170627195510 78 52 2.0 14.0 0.00 0.00 0.00 48 1019.3
20170627195010 78 335 3.0 6.0 0.00 0.00 0.00 48 1019.3
20170627194509 78 275 1.0 6.0 0.00 0.00 0.00 51 1019.6
20170627194007 78 333 2.0 6.0 0.00 0.00 0.00 49 1019.6
20170627193507 78 333 3.0 8.0 0.00 0.00 0.00 53 1019.6
20170627193006 78 62 3.0 8.0 0.00 0.00 0.00 51 1019.6
20170627192505 78 346 4.0 9.0 0.00 0.00 0.00 51 1019.6
20170627192004 78 60 2.0 9.0 0.00 0.00 0.00 47 1019.6
20170627191502 78 3 4.0 9.0 0.00 0.00 0.00 47 1019.6
20170627191001 77 315 2.0 6.0 0.00 0.00 0.00 52 1019.6
20170627190459 77 353 3.0 8.0 0.00 0.00 0.00 47 1019.6
20170627185959 77 346 3.0 8.0 0.00 0.00 0.00 47 1020.0
20170627185458 77 14 4.0 10.0 0.00 0.00 0.00 51 1020.0
20170627184957 78 337 5.0 10.0 0.00 0.00 0.00 47 1020.0
20170627184456 78 146 1.0 5.0 0.00 0.00 0.00 48 1020.0
20170627183955 77 15 2.0 5.0 0.00 0.00 0.00 46 1020.0
20170627183454 77 327 3.0 6.0 0.00 0.00 0.00 46 1020.0
20170627182953 77 344 4.0 7.0 0.00 0.00 0.00 47 1020.3
20170627182452 77 16 3.0 7.0 0.00 0.00 0.00 49 1020.3
20170627181951 76 39 2.0 9.0 0.00 0.00 0.00 53 1020.3
20170627181450 76 349 4.0 9.0 0.00 0.00 0.00 50 1020.3
20170627180948 76 345 3.0 9.0 0.00 0.00 0.00 50 1020.3
20170627180448 76 5 4.0 9.0 0.00 0.00 0.00 52 1020.3
20170627175947 76 337 3.0 8.0 0.00 0.00 0.00 51 1020.3
20170627175446 76 356 2.0 5.0 0.00 0.00 0.00 57 1020.3
20170627174944 75 227 2.0 5.0 0.00 0.00 0.00 61 1020.3
20170627174442 74 60 1.0 5.0 0.00 0.00 0.00 56 1020.3
20170627173942 74 15 2.0 6.0 0.00 0.00 0.00 59 1020.3
20170627173440 74 40 2.0 6.0 0.00 0.00 0.00 63 1020.3
20170627172939 74 31 3.0 6.0 0.00 0.00 0.00 60 1020.3
20170627172438 73 74 3.0 4.0 0.00 0.00 0.00 62 1020.3
20170627171937 73 343 2.0 3.0 0.00 0.00 0.00 68 1020.7
20170627171435 72 321 1.0 3.0 0.00 0.00 0.00 64 1020.7
20170627170935 73 321 0.0 3.0 0.00 0.00 0.00 65 1020.7
20170627170433 73 324 1.0 3.0 0.00 0.00 0.00 65 1020.7
20170627165932 73 319 0.0 3.0 0.00 0.00 0.00 69 1020.7
20170627165431 73 289 1.0 3.0 0.00 0.00 0.00 65 1020.7
20170627164929 73 235 1.0 2.0 0.00 0.00 0.00 64 1020.7
20170627164428 73 335 1.0 3.0 0.00 0.00 0.00 67 1021.0
20170627163927 73 57 1.0 3.0 0.00 0.00 0.00 66 1021.0
20170627163426 72 91 0.0 3.0 0.00 0.00 0.00 72 1021.0
20170627162925 72 92 0.0 4.0 0.00 0.00 0.00 73 1021.0
20170627162424 72 89 1.0 4.0 0.00 0.00 0.00 68 1021.0
20170627161923 72 212 0.0 5.0 0.00 0.00 0.00 67 1020.7
20170627161422 72 292 1.0 5.0 0.00 0.00 0.00 72 1021.0
20170627160921 71 359 0.0 1.0 0.00 0.00 0.00 77 1021.0
20170627160419 70 356 0.0 1.0 0.00 0.00 0.00 78 1021.0
20170627155918 70 1 1.0 1.0 0.00 0.00 0.00 76 1021.0
20170627155417 70 294 0.0 3.0 0.00 0.00 0.00 78 1021.3
20170627154916 70 315 1.0 3.0 0.00 0.00 0.00 79 1020.7
20170627154415 70 276 0.0 3.0 0.00 0.00 0.00 77 1021.0
20170627153914 70 298 0.0 4.0 0.00 0.00 0.00 73 1020.7
20170627153413 71 348 2.0 4.0 0.00 0.00 0.00 72 1020.7
20170627152912 71 321 1.0 3.0 0.00 0.00 0.00 71 1021.0
20170627152412 71 332 1.0 3.0 0.00 0.00 0.00 72 1021.0
20170627151910 71 201 1.0 1.0 0.00 0.00 0.00 74 1021.0
20170627151408 71 200 0.0 2.0 0.00 0.00 0.00 75 1021.0
20170627150907 71 200 0.0 2.0 0.00 0.00 0.00 73 1021.0
20170627150406 71 200 0.0 3.0 0.00 0.00 0.00 73 1021.0
20170627145905 71 208 0.0 4.0 0.00 0.00 0.00 74 1021.3
20170627145404 71 141 1.0 5.0 0.00 0.00 0.00 73 1021.3
20170627144842 71 11 2.0 5.0 0.00 0.00 0.00 72 1021.3
20170627144341 71 53 1.0 4.0 0.00 0.00 0.00 72 1021.3
20170627143840 71 25 1.0 3.0 0.00 0.00 0.00 75 1021.3
20170627143339 71 240 1.0 4.0 0.00 0.00 0.00 76 1021.3
20170627142838 70 20 3.0 4.0 0.00 0.00 0.00 73 1021.0
20170627142337 70 348 2.0 6.0 0.00 0.00 0.00 75 1020.7
20170627141836 70 49 3.0 6.0 0.00 0.00 0.00 73 1020.3
20170627141335 70 61 2.0 3.0 0.00 0.00 0.00 76 1020.3
20170627140830 69 319 1.0 3.0 0.00 0.00 0.00 78 1020.7
20170627140329 69 343 0.0 3.0 0.00 0.00 0.00 77 1021.0
20170627135828 69 341 1.0 4.0 0.00 0.00 0.00 79 1021.0
20170627135327 69 354 2.0 4.0 0.00 0.00 0.00 78 1021.0
20170627134826 69 45 2.0 4.0 0.00 0.00 0.00 78 1020.7
20170627134325 68 359 1.0 3.0 0.00 0.00 0.00 81 1020.7
20170627133824 68 55 1.0 3.0 0.00 0.00 0.00 80 1021.0
20170627133323 68 50 1.0 1.0 0.00 0.00 0.00 81 1021.0
20170627132823 67 337 0.0 1.0 0.00 0.00 0.00 81 1021.0
20170627132322 67 337 1.0 1.0 0.00 0.00 0.00 81 1020.7
20170627131821 67 323 0.0 1.0 0.00 0.00 0.00 81 1021.0
20170627131319 67 323 0.0 2.0 0.00 0.00 0.00 82 1020.7
20170627130818 66 323 0.0 2.0 0.00 0.00 0.00 82 1020.7
20170627130317 66 323 1.0 3.0 0.00 0.00 0.00 84 1020.7
20170627125816 66 323 1.0 3.0 0.00 0.00 0.00 83 1020.7
20170627125315 66 45 1.0 1.0 0.00 0.00 0.00 85 1020.7
20170627124815 66 46 0.0 1.0 0.00 0.00 0.00 85 1020.7
20170627124313 65 46 0.0 1.0 0.00 0.00 0.00 88 1020.7
20170627123812 66 47 1.0 3.0 0.00 0.00 0.00 86 1020.7
20170627123311 66 21 1.0 4.0 0.00 0.00 0.00 84 1020.7
20170627122810 65 356 1.0 4.0 0.00 0.00 0.00 85 1020.7
20170627122309 64 333 2.0 5.0 0.00 0.00 0.00 87 1020.3
20170627121808 64 340 3.0 5.0 0.00 0.00 0.00 87 1020.7
20170627121306 63 5 2.0 4.0 0.00 0.00 0.00 88 1020.7
20170627120805 62 356 2.0 3.0 0.00 0.00 0.00 90 1020.3
20170627120304 62 3 1.0 1.0 0.00 0.00 0.00 92 1020.3
20170627115803 61 25 1.0 1.0 0.00 0.00 0.00 91 1020.3
20170627115303 61 25 0.0 1.0 0.00 0.00 0.00 93 1020.0
20170627114802 61 25 0.0 1.0 0.00 0.00 0.00 94 1020.0
20170627114301 60 25 0.0 1.0 0.00 0.00 0.00 95 1020.0
20170627113800 60 26 1.0 1.0 0.00 0.00 0.00 96 1020.0
20170627113259 60 26 1.0 1.0 0.00 0.00 0.00 96 1020.0
20170627112758 59 345 0.0 0.0 0.00 0.00 0.00 96 1020.0
20170627112258 59 345 0.0 1.0 0.00 0.00 0.00 96 1020.0
20170627111757 59 345 0.0 1.0 0.00 0.00 0.00 96 1020.0
20170627111255 59 345 0.0 1.0 0.00 0.00 0.00 96 1020.0
20170627110754 59 345 1.0 1.0 0.00 0.00 0.00 96 1020.0
20170627110253 58 344 0.0 0.0 0.00 0.00 0.00 96 1020.0
20170627105752 58 344 0.0 0.0 0.00 0.00 0.00 96 1020.0
20170627105251 58 345 0.0 0.0 0.00 0.00 0.00 96 1020.0
20170627104750 58 344 0.0 0.0 0.00 0.00 0.00 95 1020.0
20170627104249 58 344 0.0 0.0 0.00 0.00 0.00 95 1020.0
20170627103748 58 344 0.0 0.0 0.00 0.00 0.00 96 1020.0
20170627103247 58 344 0.0 0.0 0.00 0.00 0.00 96 1020.0
20170627102746 58 344 0.0 0.0 0.00 0.00 0.00 96 1020.0
20170627102245 58 345 0.0 0.0 0.00 0.00 0.00 96 1020.0
20170627101744 58 344 0.0 0.0 0.00 0.00 0.00 96 1020.0
20170627101244 58 344 0.0 0.0 0.00 0.00 0.00 95 1020.0
20170627100742 58 345 0.0 0.0 0.00 0.00 0.00 95 1020.0
20170627100241 58 345 0.0 0.0 0.00 0.00 0.00 96 1020.0
20170627095740 58 344 0.0 0.0 0.00 0.00 0.00 96 1019.6
20170627095239 58 344 0.0 0.0 0.00 0.00 0.00 96 1019.6
20170627094738 58 344 0.0 0.0 0.00 0.00 0.00 96 1019.6
20170627094236 57 345 0.0 0.0 0.00 0.00 0.00 95 1019.6
20170627093736 57 345 0.0 0.0 0.00 0.00 0.00 95 1019.6
20170627093235 57 345 0.0 0.0 0.00 0.00 0.00 95 1019.3
20170627092734 58 345 0.0 0.0 0.00 0.00 0.00 95 1019.3
20170627092232 58 344 0.0 0.0 0.00 0.00 0.00 95 1019.3
20170627091739 58 345 0.0 0.0 0.00 0.00 0.00 95 1019.3
20170627091231 58 344 0.0 0.0 0.00 0.00 0.00 95 1019.0
20170627090730 58 344 0.0 0.0 0.00 0.00 0.00 95 1019.3
20170627090229 58 345 0.0 0.0 0.00 0.00 0.00 95 1019.0
20170627085728 58 345 0.0 0.0 0.00 0.00 0.00 94 1019.0
20170627085223 59 345 0.0 0.0 0.00 0.00 0.00 94 1019.0
20170627084722 59 345 0.0 0.0 0.00 0.00 0.00 94 1019.3
20170627084221 59 344 0.0 0.0 0.00 0.00 0.00 94 1019.3
20170627083719 59 345 0.0 0.0 0.00 0.00 0.00 94 1019.3
20170627083219 59 345 0.0 0.0 0.00 0.00 0.00 94 1019.3
20170627082718 59 345 0.0 0.0 0.00 0.00 0.00 93 1019.3
20170627082217 59 345 0.0 0.0 0.00 0.00 0.00 94 1019.3
20170627081715 60 345 0.0 0.0 0.00 0.00 0.00 93 1019.3
20170627081215 60 345 0.0 0.0 0.00 0.00 0.00 93 1019.3
20170627080724 60 345 0.0 0.0 0.00 0.00 0.00 93 1019.3
20170627080213 60 345 0.0 0.0 0.00 0.00 0.00 93 1019.3
20170627075712 60 345 0.0 0.0 0.00 0.00 0.00 93 1019.3
20170627075211 60 345 0.0 0.0 0.00 0.00 0.00 93 1019.3
20170627074709 60 344 0.0 0.0 0.00 0.00 0.00 92 1019.3
20170627074208 61 345 0.0 1.0 0.00 0.00 0.00 92 1019.3
20170627073707 61 345 0.0 1.0 0.00 0.00 0.00 92 1019.3
20170627073207 61 345 0.0 1.0 0.00 0.00 0.00 91 1019.3
20170627072706 61 345 1.0 1.0 0.00 0.00 0.00 91 1019.3
20170627072205 61 345 0.0 1.0 0.00 0.00 0.00 91 1019.3
20170627071703 61 345 0.0 1.0 0.00 0.00 0.00 90 1019.3
20170627071202 62 345 0.0 1.0 0.00 0.00 0.00 90 1019.3
20170627070702 62 335 1.0 1.0 0.00 0.00 0.00 90 1019.0
20170627070201 61 292 1.0 1.0 0.00 0.00 0.00 90 1019.0
20170627065700 61 4 0.0 1.0 0.00 0.00 0.00 90 1019.0
20170627065159 61 4 0.0 1.0 0.00 0.00 0.00 90 1018.6
20170627064658 61 4 1.0 1.0 0.00 0.00 0.00 90 1018.6
20170627064157 61 333 1.0 1.0 0.00 0.00 0.00 91 1018.6
20170627063656 61 57 0.0 0.0 0.00 0.00 0.00 91 1019.0
20170627063155 61 56 0.0 0.0 0.00 0.00 0.00 91 1019.0
20170627062654 61 57 0.0 0.0 0.00 0.00 0.00 92 1019.0
20170627062153 61 57 0.0 0.0 0.00 0.00 0.00 92 1019.0
20170627061652 61 57 0.0 0.0 0.00 0.00 0.00 92 1019.3
20170627061151 60 57 0.0 0.0 0.00 0.00 0.00 93 1019.3
20170627060650 60 56 0.0 0.0 0.00 0.00 0.00 93 1019.6
20170627060149 60 57 0.0 0.0 0.00 0.00 0.00 94 1019.6
20170627055648 60 57 0.0 0.0 0.00 0.00 0.00 94 1019.6
20170627055147 60 56 0.0 0.0 0.00 0.00 0.00 94 1019.6
20170627054646 60 57 0.0 0.0 0.00 0.00 0.00 94 1019.6
20170627054144 59 57 0.0 0.0 0.00 0.00 0.00 95 1019.6
20170627053644 59 57 0.0 0.0 0.00 0.00 0.00 94 1019.6
20170627053143 59 57 0.0 0.0 0.00 0.00 0.00 94 1019.6